Time,TemperatureF,DewpointF,PressureIn,WindDirection,WindDirectionDegrees,WindSpeedMPH,WindSpeedGustMPH,Humidity,HourlyPrecipIn,Conditions,Clouds,dailyrainin,SoftwareType,DateUTC
2013-01-07 00:00:00,33.5,28.3,30.19,NNW,338,0.0,1.8,81,0.00,,,0.00,WUHU216HW,2013-01-07 05:00:00,
2013-01-07 00:01:00,33.5,28.3,30.19,NNW,338,0.0,1.8,81,0.00,,,0.00,WUHU216HW,2013-01-07 05:01:00,
2013-01-07 00:06:00,33.5,28.3,30.19,NNW,338,0.2,1.8,81,0.00,,,0.00,WUHU216HW,2013-01-07 05:06:00,
2013-01-07 00:11:00,33.5,28.3,30.19,NNW,338,1.1,1.1,81,0.00,,,0.00,WUHU216HW,2013-01-07 05:11:00,
2013-01-07 00:16:00,33.5,28.3,30.19,NNW,338,0.0,1.1,81,0.00,,,0.00,WUHU216HW,2013-01-07 05:16:00,
2013-01-07 00:21:00,33.3,28.1,30.19,NNW,338,0.0,1.8,81,0.00,,,0.00,WUHU216HW,2013-01-07 05:21:00,
2013-01-07 00:26:00,33.3,27.8,30.20,NNW,338,0.4,1.8,80,0.00,,,0.00,WUHU216HW,2013-01-07 05:26:00,
2013-01-07 00:31:00,33.3,28.1,30.20,NNW,338,0.0,1.1,81,0.00,,,0.00,WUHU216HW,2013-01-07 05:31:00,
2013-01-07 00:36:00,33.3,28.1,30.19,NNW,338,0.4,0.7,81,0.00,,,0.00,WUHU216HW,2013-01-07 05:36:00,
2013-01-07 00:41:00,33.3,28.1,30.19,NNW,338,0.2,0.7,81,0.00,,,0.00,WUHU216HW,2013-01-07 05:41:00,
2013-01-07 00:46:00,33.3,28.1,30.19,NNW,338,0.4,0.4,81,0.00,,,0.00,WUHU216HW,2013-01-07 05:46:00,
2013-01-07 00:51:00,33.3,28.1,30.19,NNW,338,0.0,0.7,81,0.00,,,0.00,WUHU216HW,2013-01-07 05:51:00,
2013-01-07 00:56:00,33.3,28.1,30.20,NNW,338,0.4,0.9,81,0.00,,,0.00,WUHU216HW,2013-01-07 05:56:00,
2013-01-07 01:01:00,33.1,27.9,30.20,NNW,338,0.0,1.1,81,0.00,,,0.00,WUHU216HW,2013-01-07 06:01:00,
2013-01-07 01:06:00,33.1,27.9,30.20,NNW,338,0.9,1.1,81,0.00,,,0.00,WUHU216HW,2013-01-07 06:06:00,
2013-01-07 01:11:00,33.1,27.6,30.20,NNW,338,1.8,1.8,80,0.00,,,0.00,WUHU216HW,2013-01-07 06:11:00,
2013-01-07 01:15:00,32.9,27.5,30.21,NNW,338,0.0,1.8,80,0.00,,,0.00,WUHU216HW,2013-01-07 06:15:00,
2013-01-07 01:20:00,32.9,27.5,30.21,NNW,338,0.4,0.4,80,0.00,,,0.00,WUHU216HW,2013-01-07 06:20:00,
2013-01-07 01:25:00,32.9,27.5,30.21,NNW,338,0.7,1.3,80,0.00,,,0.00,WUHU216HW,2013-01-07 06:25:00,
2013-01-07 01:30:00,32.8,27.3,30.21,NNW,338,0.0,1.3,80,0.00,,,0.00,WUHU216HW,2013-01-07 06:30:00,
2013-01-07 01:35:00,32.8,27.5,30.22,NNW,338,0.0,0.2,81,0.00,,,0.00,WUHU216HW,2013-01-07 06:35:00,
2013-01-07 01:40:00,32.8,27.5,30.22,NNW,338,0.0,0.0,81,0.00,,,0.00,WUHU216HW,2013-01-07 06:40:00,
2013-01-07 01:45:00,32.8,27.5,30.22,NNW,338,0.0,0.0,81,0.00,,,0.00,WUHU216HW,2013-01-07 06:45:00,
2013-01-07 01:50:00,32.8,27.5,30.22,NNW,338,0.0,0.0,81,0.00,,,0.00,WUHU216HW,2013-01-07 06:50:00,
2013-01-07 01:55:00,32.8,27.5,30.22,NNW,338,0.0,0.0,81,0.00,,,0.00,WUHU216HW,2013-01-07 06:55:00,
2013-01-07 02:00:00,32.6,27.5,30.23,NNW,338,0.0,0.0,81,0.00,,,0.00,WUHU216HW,2013-01-07 07:00:00,
2013-01-07 02:05:00,32.6,27.5,30.23,NNW,338,0.0,0.4,81,0.00,,,0.00,WUHU216HW,2013-01-07 07:05:00,
2013-01-07 02:10:00,32.6,27.7,30.24,NNW,338,0.0,0.4,82,0.00,,,0.00,WUHU216HW,2013-01-07 07:10:00,
2013-01-07 02:15:00,32.6,27.7,30.24,NNW,338,0.0,0.0,82,0.00,,,0.00,WUHU216HW,2013-01-07 07:15:00,
2013-01-07 02:20:00,32.4,27.5,30.24,NNW,338,0.0,0.0,82,0.00,,,0.00,WUHU216HW,2013-01-07 07:20:00,
2013-01-07 02:25:00,32.4,27.3,30.24,NNW,338,0.0,0.0,81,0.00,,,0.00,WUHU216HW,2013-01-07 07:25:00,
2013-01-07 02:30:00,32.4,27.3,30.24,NNW,338,0.0,0.0,81,0.00,,,0.00,WUHU216HW,2013-01-07 07:30:00,
2013-01-07 02:35:00,32.4,27.3,30.24,NNW,338,0.0,0.0,81,0.00,,,0.00,WUHU216HW,2013-01-07 07:35:00,
2013-01-07 02:40:00,32.2,27.1,30.24,NNW,338,0.0,0.0,81,0.00,,,0.00,WUHU216HW,2013-01-07 07:40:00,
2013-01-07 02:45:00,32.2,27.1,30.24,NNW,338,0.0,0.0,81,0.00,,,0.00,WUHU216HW,2013-01-07 07:45:00,
2013-01-07 02:50:00,32.2,27.1,30.24,NNW,338,0.0,0.0,81,0.00,,,0.00,WUHU216HW,2013-01-07 07:50:00,
2013-01-07 02:55:00,32.2,27.4,30.24,NNW,338,0.0,0.0,82,0.00,,,0.00,WUHU216HW,2013-01-07 07:55:00,
2013-01-07 03:00:00,32.2,27.4,30.24,NNW,338,0.0,0.0,82,0.00,,,0.00,WUHU216HW,2013-01-07 08:00:00,
2013-01-07 03:05:00,32.2,27.4,30.24,NNW,338,0.0,0.0,82,0.00,,,0.00,WUHU216HW,2013-01-07 08:05:00,
2013-01-07 03:10:00,32.2,27.4,30.25,NNW,338,0.0,0.0,82,0.00,,,0.00,WUHU216HW,2013-01-07 08:10:00,
2013-01-07 03:15:00,32.0,27.2,30.25,NNW,338,0.0,0.4,82,0.00,,,0.00,WUHU216HW,2013-01-07 08:15:00,
2013-01-07 03:20:00,32.0,27.2,30.25,NNW,338,0.0,0.4,82,0.00,,,0.00,WUHU216HW,2013-01-07 08:20:00,
2013-01-07 03:25:00,32.0,27.2,30.24,NNW,338,0.0,0.4,82,0.00,,,0.00,WUHU216HW,2013-01-07 08:25:00,
2013-01-07 03:30:00,32.0,27.2,30.24,NNW,338,0.0,0.4,82,0.00,,,0.00,WUHU216HW,2013-01-07 08:30:00,
2013-01-07 03:35:00,32.0,27.2,30.24,NNW,338,0.0,0.0,82,0.00,,,0.00,WUHU216HW,2013-01-07 08:35:00,
2013-01-07 03:40:00,32.0,27.2,30.24,NNW,338,0.0,0.0,82,0.00,,,0.00,WUHU216HW,2013-01-07 08:40:00,
2013-01-07 03:45:00,32.0,27.2,30.24,NNW,338,0.0,0.0,82,0.00,,,0.00,WUHU216HW,2013-01-07 08:45:00,
2013-01-07 03:50:00,32.0,27.2,30.24,NNW,338,0.0,0.0,82,0.00,,,0.00,WUHU216HW,2013-01-07 08:50:00,
2013-01-07 03:55:00,32.0,27.2,30.24,NNW,338,0.0,0.4,82,0.00,,,0.00,WUHU216HW,2013-01-07 08:55:00,
2013-01-07 04:00:00,32.0,27.2,30.24,NNW,338,0.0,0.4,82,0.00,,,0.00,WUHU216HW,2013-01-07 09:00:00,
2013-01-07 04:05:00,32.0,27.2,30.24,NNW,338,0.0,0.0,82,0.00,,,0.00,WUHU216HW,2013-01-07 09:05:00,
2013-01-07 04:10:00,32.0,27.2,30.24,NNW,338,0.0,0.0,82,0.00,,,0.00,WUHU216HW,2013-01-07 09:10:00,
2013-01-07 04:15:00,32.0,27.2,30.25,NNW,338,0.0,0.0,82,0.00,,,0.00,WUHU216HW,2013-01-07 09:15:00,
2013-01-07 04:20:00,31.9,27.0,30.25,NNW,338,0.0,0.0,82,0.00,,,0.00,WUHU216HW,2013-01-07 09:20:00,
2013-01-07 04:25:00,32.0,27.2,30.25,NNW,338,0.0,0.0,82,0.00,,,0.00,WUHU216HW,2013-01-07 09:25:00,
2013-01-07 04:30:00,32.0,26.9,30.25,NNW,338,0.0,0.0,81,0.00,,,0.00,WUHU216HW,2013-01-07 09:30:00,
2013-01-07 04:35:00,31.9,26.7,30.24,NNW,338,0.2,0.7,81,0.00,,,0.00,WUHU216HW,2013-01-07 09:35:00,
2013-01-07 04:40:00,31.7,26.6,30.25,NNW,338,0.0,0.7,81,0.00,,,0.00,WUHU216HW,2013-01-07 09:40:00,
2013-01-07 04:45:00,31.7,26.6,30.26,NNW,338,0.0,0.0,81,0.00,,,0.00,WUHU216HW,2013-01-07 09:45:00,
2013-01-07 04:50:00,31.7,26.6,30.26,NNW,338,0.0,0.0,81,0.00,,,0.00,WUHU216HW,2013-01-07 09:50:00,
2013-01-07 04:55:00,31.5,26.4,30.26,NNW,338,0.0,0.4,81,0.00,,,0.00,WUHU216HW,2013-01-07 09:55:00,
2013-01-07 05:00:00,31.3,26.2,30.26,NNW,338,0.0,0.4,81,0.00,,,0.00,WUHU216HW,2013-01-07 10:00:00,
2013-01-07 05:05:00,31.3,26.2,30.26,NNW,338,0.0,0.0,81,0.00,,,0.00,WUHU216HW,2013-01-07 10:05:00,
2013-01-07 05:10:00,31.3,26.2,30.26,NNW,338,0.0,0.0,81,0.00,,,0.00,WUHU216HW,2013-01-07 10:10:00,
2013-01-07 05:15:00,31.3,26.2,30.26,NNW,338,0.0,0.0,81,0.00,,,0.00,WUHU216HW,2013-01-07 10:15:00,
2013-01-07 05:20:00,31.3,26.2,30.25,NNW,338,0.0,0.0,81,0.00,,,0.00,WUHU216HW,2013-01-07 10:20:00,
2013-01-07 05:25:00,31.3,26.2,30.26,NNW,338,0.2,0.4,81,0.00,,,0.00,WUHU216HW,2013-01-07 10:25:00,
2013-01-07 05:30:00,31.3,26.2,30.25,NNW,338,0.0,0.4,81,0.00,,,0.00,WUHU216HW,2013-01-07 10:30:00,
2013-01-07 05:35:00,31.3,26.2,30.27,NNW,338,0.0,0.0,81,0.00,,,0.00,WUHU216HW,2013-01-07 10:35:00,
2013-01-07 05:40:00,31.3,26.2,30.26,NNW,338,0.0,0.9,81,0.00,,,0.00,WUHU216HW,2013-01-07 10:40:00,
2013-01-07 05:45:00,31.3,26.2,30.26,NNW,338,0.2,1.6,81,0.00,,,0.00,WUHU216HW,2013-01-07 10:45:00,
2013-01-07 05:50:00,31.3,26.2,30.26,NNW,338,0.9,1.6,81,0.00,,,0.00,WUHU216HW,2013-01-07 10:50:00,
2013-01-07 05:55:00,31.3,26.2,30.27,NNW,338,0.4,1.1,81,0.00,,,0.00,WUHU216HW,2013-01-07 10:55:00,
2013-01-07 06:00:00,31.3,26.2,30.27,NNW,338,0.0,1.1,81,0.00,,,0.00,WUHU216HW,2013-01-07 11:00:00,
2013-01-07 06:05:00,31.3,26.2,30.27,NNW,338,0.0,0.0,81,0.00,,,0.00,WUHU216HW,2013-01-07 11:05:00,
2013-01-07 06:10:00,31.3,26.2,30.27,NNW,338,0.4,1.1,81,0.00,,,0.00,WUHU216HW,2013-01-07 11:10:00,
2013-01-07 06:15:00,31.3,25.9,30.27,NNW,338,0.4,1.1,80,0.00,,,0.00,WUHU216HW,2013-01-07 11:15:00,
2013-01-07 06:20:00,31.3,25.9,30.27,NNW,338,1.8,2.5,80,0.00,,,0.00,WUHU216HW,2013-01-07 11:20:00,
2013-01-07 06:25:00,31.5,26.1,30.27,NNW,338,0.0,2.5,80,0.00,,,0.00,WUHU216HW,2013-01-07 11:25:00,
2013-01-07 06:30:00,31.5,26.1,30.27,NNW,338,0.2,2.5,80,0.00,,,0.00,WUHU216HW,2013-01-07 11:30:00,
2013-01-07 06:35:00,31.5,25.7,30.27,NNW,338,0.7,1.1,79,0.00,,,0.00,WUHU216HW,2013-01-07 11:35:00,
2013-01-07 06:40:00,31.5,26.1,30.26,NNW,338,0.4,1.1,80,0.00,,,0.00,WUHU216HW,2013-01-07 11:40:00,
2013-01-07 06:45:00,31.5,25.7,30.27,NNW,338,0.4,1.8,79,0.00,,,0.00,WUHU216HW,2013-01-07 11:45:00,
2013-01-07 06:50:00,31.7,25.9,30.27,NNW,338,0.0,1.8,79,0.00,,,0.00,WUHU216HW,2013-01-07 11:50:00,
2013-01-07 06:55:00,31.5,25.7,30.28,NNW,338,0.9,1.1,79,0.00,,,0.00,WUHU216HW,2013-01-07 11:55:00,
2013-01-07 07:00:00,31.7,25.9,30.27,NNW,338,0.4,1.1,79,0.00,,,0.00,WUHU216HW,2013-01-07 12:00:00,
2013-01-07 07:05:00,31.7,25.9,30.27,NNW,338,1.1,1.1,79,0.00,,,0.00,WUHU216HW,2013-01-07 12:05:00,
2013-01-07 07:10:00,31.7,25.9,30.27,NNW,338,0.9,1.1,79,0.00,,,0.00,WUHU216HW,2013-01-07 12:10:00,
2013-01-07 07:15:00,31.7,25.9,30.27,NNW,338,1.8,1.8,79,0.00,,,0.00,WUHU216HW,2013-01-07 12:15:00,
2013-01-07 07:20:00,31.7,25.9,30.28,NNW,338,2.0,2.0,79,0.00,,,0.00,WUHU216HW,2013-01-07 12:20:00,
2013-01-07 07:25:00,31.7,25.9,30.28,NNW,338,0.7,2.2,79,0.00,,,0.00,WUHU216HW,2013-01-07 12:25:00,
2013-01-07 07:30:00,31.7,25.9,30.28,NNW,338,2.7,2.7,79,0.00,,,0.00,WUHU216HW,2013-01-07 12:30:00,
2013-01-07 07:35:00,31.7,25.7,30.28,NNW,338,0.4,2.7,78,0.00,,,0.00,WUHU216HW,2013-01-07 12:35:00,
2013-01-07 07:40:00,31.7,25.7,30.28,NNW,338,1.6,2.2,78,0.00,,,0.00,WUHU216HW,2013-01-07 12:40:00,
2013-01-07 07:45:00,31.5,25.5,30.28,NNW,338,1.8,2.2,78,0.00,,,0.00,WUHU216HW,2013-01-07 12:45:00,
2013-01-07 07:50:00,31.7,25.7,30.29,NNW,338,2.5,2.7,78,0.00,,,0.00,WUHU216HW,2013-01-07 12:50:00,
2013-01-07 07:55:00,31.7,25.7,30.29,NNW,338,0.7,2.7,78,0.00,,,0.00,WUHU216HW,2013-01-07 12:55:00,
2013-01-07 08:00:00,31.7,25.7,30.29,NNW,338,4.0,4.0,78,0.00,,,0.00,WUHU216HW,2013-01-07 13:00:00,
2013-01-07 08:05:00,31.5,25.5,30.29,NNW,338,0.2,4.0,78,0.00,,,0.00,WUHU216HW,2013-01-07 13:05:00,
2013-01-07 08:10:00,31.7,25.7,30.29,NNW,338,2.7,3.4,78,0.00,,,0.00,WUHU216HW,2013-01-07 13:10:00,
2013-01-07 08:15:00,31.7,25.3,30.29,NNW,338,1.1,4.7,77,0.00,,,0.00,WUHU216HW,2013-01-07 13:15:00,
2013-01-07 08:20:00,31.5,25.1,30.29,NNW,338,4.0,4.7,77,0.00,,,0.00,WUHU216HW,2013-01-07 13:20:00,
2013-01-07 08:25:00,31.5,25.1,30.30,NNW,338,0.7,4.5,77,0.00,,,0.00,WUHU216HW,2013-01-07 13:25:00,
2013-01-07 08:30:00,31.5,25.1,30.30,NNW,338,1.1,4.5,77,0.00,,,0.00,WUHU216HW,2013-01-07 13:30:00,
2013-01-07 08:35:00,31.3,24.9,30.30,NNW,338,0.9,3.4,77,0.00,,,0.00,WUHU216HW,2013-01-07 13:35:00,
2013-01-07 08:40:00,31.3,24.9,30.30,NNW,338,0.9,3.4,77,0.00,,,0.00,WUHU216HW,2013-01-07 13:40:00,
2013-01-07 08:45:00,31.3,24.9,30.30,NNW,338,0.9,2.7,77,0.00,,,0.00,WUHU216HW,2013-01-07 13:45:00,
2013-01-07 08:50:00,31.1,24.8,30.30,NNW,338,1.1,2.7,77,0.00,,,0.00,WUHU216HW,2013-01-07 13:50:00,
2013-01-07 08:55:00,31.1,24.5,30.30,NNW,338,2.7,3.1,76,0.00,,,0.00,WUHU216HW,2013-01-07 13:55:00,
2013-01-07 09:00:00,31.3,24.9,30.30,NNW,338,0.9,4.0,77,0.00,,,0.00,WUHU216HW,2013-01-07 14:00:00,
2013-01-07 09:05:00,31.3,24.7,30.30,NNW,338,3.4,4.0,76,0.00,,,0.00,WUHU216HW,2013-01-07 14:05:00,
2013-01-07 09:10:00,31.3,24.7,30.30,NNW,338,1.3,4.3,76,0.00,,,0.00,WUHU216HW,2013-01-07 14:10:00,
2013-01-07 09:15:00,31.3,24.7,30.30,NNW,338,2.0,4.3,76,0.00,,,0.00,WUHU216HW,2013-01-07 14:15:00,
2013-01-07 09:20:00,31.3,24.7,30.30,NNW,338,2.7,2.9,76,0.00,,,0.00,WUHU216HW,2013-01-07 14:20:00,
2013-01-07 09:25:00,31.5,24.9,30.30,NNW,338,0.4,2.7,76,0.00,,,0.00,WUHU216HW,2013-01-07 14:25:00,
2013-01-07 09:30:00,31.3,24.7,30.31,NNW,338,2.2,4.5,76,0.00,,,0.00,WUHU216HW,2013-01-07 14:30:00,
2013-01-07 09:35:00,31.7,25.0,30.31,NNW,338,1.1,4.5,76,0.00,,,0.00,WUHU216HW,2013-01-07 14:35:00,
2013-01-07 09:40:00,31.9,25.2,30.31,NNW,338,1.1,2.9,76,0.00,,,0.00,WUHU216HW,2013-01-07 14:40:00,
2013-01-07 09:45:00,32.0,25.4,30.31,NNW,338,3.6,4.0,76,0.00,,,0.00,WUHU216HW,2013-01-07 14:45:00,
2013-01-07 09:50:00,32.0,25.4,30.31,NNW,338,4.0,4.0,76,0.00,,,0.00,WUHU216HW,2013-01-07 14:50:00,
2013-01-07 09:55:00,32.0,25.4,30.31,NNW,338,2.2,4.0,76,0.00,,,0.00,WUHU216HW,2013-01-07 14:55:00,
2013-01-07 10:00:00,32.4,25.7,30.31,NW,315,1.3,6.3,76,0.00,,,0.00,WUHU216HW,2013-01-07 15:00:00,
2013-01-07 10:05:00,32.4,25.4,30.31,NW,315,3.4,6.3,75,0.00,,,0.00,WUHU216HW,2013-01-07 15:05:00,
2013-01-07 10:10:00,32.6,25.5,30.31,WSW,248,2.9,5.1,75,0.00,,,0.00,WUHU216HW,2013-01-07 15:10:00,
2013-01-07 10:15:00,32.6,25.5,30.30,WSW,248,5.6,7.6,75,0.00,,,0.00,WUHU216HW,2013-01-07 15:15:00,
2013-01-07 10:20:00,32.8,25.7,30.31,WSW,248,2.5,7.6,75,0.00,,,0.00,WUHU216HW,2013-01-07 15:20:00,
2013-01-07 10:25:00,32.8,25.7,30.31,South,180,4.5,5.4,75,0.00,,,0.00,WUHU216HW,2013-01-07 15:25:00,
2013-01-07 10:30:00,32.9,25.5,30.30,South,180,2.5,5.8,74,0.00,,,0.00,WUHU216HW,2013-01-07 15:30:00,
2013-01-07 10:35:00,32.9,25.5,30.30,SSW,203,3.4,7.2,74,0.00,,,0.00,WUHU216HW,2013-01-07 15:35:00,
2013-01-07 10:40:00,33.1,26.0,30.30,SSW,203,2.7,7.2,75,0.00,,,0.00,WUHU216HW,2013-01-07 15:40:00,
2013-01-07 10:45:00,33.5,26.0,30.30,South,180,6.5,6.5,74,0.00,,,0.00,WUHU216HW,2013-01-07 15:45:00,
2013-01-07 10:50:00,33.5,26.3,30.30,West,270,6.3,6.5,75,0.00,,,0.00,WUHU216HW,2013-01-07 15:50:00,
2013-01-07 10:55:00,33.5,26.0,30.29,SSW,203,2.5,8.9,74,0.00,,,0.00,WUHU216HW,2013-01-07 15:55:00,
2013-01-07 11:00:00,33.7,26.2,30.29,SSW,203,4.0,8.9,74,0.00,,,0.00,WUHU216HW,2013-01-07 16:00:00,
2013-01-07 11:05:00,33.5,26.0,30.29,South,180,8.9,8.9,74,0.00,,,0.00,WUHU216HW,2013-01-07 16:05:00,
2013-01-07 11:10:00,33.7,26.2,30.29,SSW,203,3.8,8.9,74,0.00,,,0.00,WUHU216HW,2013-01-07 16:10:00,
2013-01-07 11:15:00,33.7,26.2,30.29,South,180,3.6,5.8,74,0.00,,,0.00,WUHU216HW,2013-01-07 16:15:00,
2013-01-07 11:20:00,33.7,26.2,30.28,WSW,248,3.1,7.2,74,0.00,,,0.00,WUHU216HW,2013-01-07 16:20:00,
2013-01-07 11:25:00,33.8,26.0,30.28,SSW,203,7.4,7.4,73,0.00,,,0.00,WUHU216HW,2013-01-07 16:25:00,
2013-01-07 11:30:00,33.8,26.3,30.28,South,180,2.7,7.4,74,0.00,,,0.00,WUHU216HW,2013-01-07 16:30:00,
2013-01-07 11:35:00,33.8,26.3,30.28,South,180,4.0,5.8,74,0.00,,,0.00,WUHU216HW,2013-01-07 16:35:00,
2013-01-07 11:40:00,34.0,26.5,30.27,South,180,4.0,8.7,74,0.00,,,0.00,WUHU216HW,2013-01-07 16:40:00,
2013-01-07 11:45:00,34.2,26.6,30.27,South,180,2.5,8.7,74,0.00,,,0.00,WUHU216HW,2013-01-07 16:45:00,
2013-01-07 11:50:00,34.2,26.4,30.27,SSW,203,3.1,7.6,73,0.00,,,0.00,WUHU216HW,2013-01-07 16:50:00,
2013-01-07 11:55:00,34.2,26.4,30.26,South,180,6.9,9.2,73,0.00,,,0.00,WUHU216HW,2013-01-07 16:55:00,
2013-01-07 12:00:00,34.2,26.6,30.26,SW,225,3.4,9.2,74,0.00,,,0.00,WUHU216HW,2013-01-07 17:00:00,
2013-01-07 12:05:00,34.0,26.5,30.26,SSW,203,5.6,6.3,74,0.00,,,0.00,WUHU216HW,2013-01-07 17:05:00,
2013-01-07 12:10:00,34.2,26.6,30.25,West,270,8.1,8.3,74,0.00,,,0.00,WUHU216HW,2013-01-07 17:10:00,
2013-01-07 12:15:00,34.2,26.6,30.25,SSE,158,2.7,8.3,74,0.00,,,0.00,WUHU216HW,2013-01-07 17:15:00,
2013-01-07 12:20:00,34.2,26.4,30.25,SW,225,5.1,7.6,73,0.00,,,0.00,WUHU216HW,2013-01-07 17:20:00,
2013-01-07 12:25:00,34.2,26.6,30.24,South,180,5.4,10.1,74,0.00,,,0.00,WUHU216HW,2013-01-07 17:25:00,
2013-01-07 12:30:00,34.2,26.4,30.24,SW,225,5.4,10.1,73,0.00,,,0.00,WUHU216HW,2013-01-07 17:30:00,
2013-01-07 12:35:00,34.2,26.6,30.24,SSW,203,3.6,8.1,74,0.00,,,0.00,WUHU216HW,2013-01-07 17:35:00,
2013-01-07 12:40:00,34.2,26.6,30.23,SSW,203,6.9,10.7,74,0.00,,,0.00,WUHU216HW,2013-01-07 17:40:00,
2013-01-07 12:45:00,34.2,26.6,30.23,South,180,7.4,10.7,74,0.00,,,0.00,WUHU216HW,2013-01-07 17:45:00,
2013-01-07 12:50:00,34.2,26.6,30.23,SSE,158,6.9,9.6,74,0.00,,,0.00,WUHU216HW,2013-01-07 17:50:00,
2013-01-07 12:55:00,34.2,26.4,30.23,South,180,8.3,10.1,73,0.00,,,0.00,WUHU216HW,2013-01-07 17:55:00,
2013-01-07 13:00:00,34.2,26.6,30.22,South,180,6.7,10.1,74,0.00,,,0.00,WUHU216HW,2013-01-07 18:00:00,
2013-01-07 13:05:00,34.2,26.4,30.23,WSW,248,8.5,8.5,73,0.00,,,0.00,WUHU216HW,2013-01-07 18:05:00,
2013-01-07 13:10:00,34.4,26.6,30.22,SSW,203,6.9,8.5,73,0.00,,,0.00,WUHU216HW,2013-01-07 18:10:00,
2013-01-07 13:15:00,34.4,26.6,30.22,SSW,203,4.7,8.5,73,0.00,,,0.00,WUHU216HW,2013-01-07 18:15:00,
2013-01-07 13:20:00,34.4,26.6,30.22,SW,225,3.1,8.5,73,0.00,,,0.00,WUHU216HW,2013-01-07 18:20:00,
2013-01-07 13:25:00,34.4,26.6,30.21,SSE,158,1.8,8.5,73,0.00,,,0.00,WUHU216HW,2013-01-07 18:25:00,
2013-01-07 13:30:00,34.4,26.6,30.21,SW,225,5.1,8.5,73,0.00,,,0.00,WUHU216HW,2013-01-07 18:30:00,
2013-01-07 13:35:00,34.4,26.6,30.21,SW,225,2.9,7.6,73,0.00,,,0.00,WUHU216HW,2013-01-07 18:35:00,
2013-01-07 13:40:00,34.4,26.6,30.21,SSW,203,8.1,8.1,73,0.00,,,0.00,WUHU216HW,2013-01-07 18:40:00,
2013-01-07 13:45:00,34.6,26.7,30.21,SSE,158,2.2,8.1,73,0.00,,,0.00,WUHU216HW,2013-01-07 18:45:00,
2013-01-07 13:50:00,34.4,26.6,30.20,South,180,4.7,4.9,73,0.00,,,0.00,WUHU216HW,2013-01-07 18:50:00,
2013-01-07 13:55:00,34.6,26.7,30.20,South,180,3.1,9.4,73,0.00,,,0.00,WUHU216HW,2013-01-07 18:55:00,
2013-01-07 14:00:00,34.4,26.6,30.20,West,270,1.8,9.4,73,0.00,,,0.00,WUHU216HW,2013-01-07 19:00:00,
2013-01-07 14:05:00,34.4,26.6,30.19,SSE,158,3.4,9.4,73,0.00,,,0.00,WUHU216HW,2013-01-07 19:05:00,
2013-01-07 14:10:00,34.4,26.6,30.19,South,180,4.9,9.4,73,0.00,,,0.00,WUHU216HW,2013-01-07 19:10:00,
2013-01-07 14:15:00,34.4,26.6,30.19,South,180,4.7,7.4,73,0.00,,,0.00,WUHU216HW,2013-01-07 19:15:00,
2013-01-07 14:20:00,34.4,26.6,30.18,SSE,158,2.7,7.4,73,0.00,,,0.00,WUHU216HW,2013-01-07 19:20:00,
2013-01-07 14:25:00,34.6,26.7,30.18,SSW,203,6.9,6.9,73,0.01,,,0.01,WUHU216HW,2013-01-07 19:25:00,
2013-01-07 14:30:00,34.4,26.6,30.18,SSW,203,5.1,7.2,73,0.01,,,0.01,WUHU216HW,2013-01-07 19:30:00,
2013-01-07 14:35:00,34.2,26.4,30.18,West,270,2.5,7.2,73,0.01,,,0.01,WUHU216HW,2013-01-07 19:35:00,
2013-01-07 14:40:00,34.4,26.6,30.18,SSW,203,6.5,6.5,73,0.01,,,0.01,WUHU216HW,2013-01-07 19:40:00,
2013-01-07 14:45:00,34.4,26.6,30.18,SSW,203,4.3,9.2,73,0.01,,,0.01,WUHU216HW,2013-01-07 19:45:00,
2013-01-07 14:50:00,34.6,26.7,30.17,South,180,3.1,9.2,73,0.01,,,0.01,WUHU216HW,2013-01-07 19:50:00,
2013-01-07 14:55:00,34.6,26.7,30.17,WSW,248,4.7,8.9,73,0.01,,,0.01,WUHU216HW,2013-01-07 19:55:00,
2013-01-07 15:00:00,34.4,26.6,30.17,South,180,2.5,8.5,73,0.01,,,0.01,WUHU216HW,2013-01-07 20:00:00,
2013-01-07 15:05:00,34.6,26.7,30.17,WSW,248,2.5,6.5,73,0.01,,,0.01,WUHU216HW,2013-01-07 20:05:00,
2013-01-07 15:10:00,34.6,26.7,30.17,South,180,2.0,9.8,73,0.01,,,0.01,WUHU216HW,2013-01-07 20:10:00,
2013-01-07 15:15:00,34.6,26.7,30.16,SW,225,4.7,9.8,73,0.01,,,0.01,WUHU216HW,2013-01-07 20:15:00,
2013-01-07 15:19:00,34.6,26.7,30.16,South,180,7.2,7.2,73,0.01,,,0.01,WUHU216HW,2013-01-07 20:19:00,
2013-01-07 15:24:00,34.6,26.7,30.16,SW,225,6.9,7.2,73,0.00,,,0.01,WUHU216HW,2013-01-07 20:24:00,
2013-01-07 15:29:00,34.6,26.7,30.16,South,180,8.1,8.1,73,0.00,,,0.01,WUHU216HW,2013-01-07 20:29:00,
2013-01-07 15:34:00,34.4,26.6,30.16,WSW,248,6.9,8.1,73,0.00,,,0.01,WUHU216HW,2013-01-07 20:34:00,
2013-01-07 15:39:00,34.4,26.6,30.16,South,180,5.6,10.1,73,0.00,,,0.01,WUHU216HW,2013-01-07 20:39:00,
2013-01-07 15:44:00,34.4,26.6,30.16,WSW,248,5.8,10.1,73,0.00,,,0.01,WUHU216HW,2013-01-07 20:44:00,
2013-01-07 15:49:00,34.4,26.6,30.16,SSW,203,3.4,5.8,73,0.00,,,0.01,WUHU216HW,2013-01-07 20:49:00,
2013-01-07 15:54:00,34.2,26.4,30.16,SW,225,3.4,7.4,73,0.00,,,0.01,WUHU216HW,2013-01-07 20:54:00,
2013-01-07 15:59:00,34.2,26.4,30.16,SW,225,2.0,7.4,73,0.00,,,0.01,WUHU216HW,2013-01-07 20:59:00,
2013-01-07 16:04:00,34.2,26.4,30.16,SSW,203,3.4,7.6,73,0.00,,,0.01,WUHU216HW,2013-01-07 21:04:00,
2013-01-07 16:09:00,34.2,26.4,30.16,SSW,203,4.0,7.6,73,0.00,,,0.01,WUHU216HW,2013-01-07 21:09:00,
2013-01-07 16:14:00,34.0,26.2,30.16,South,180,5.4,6.9,73,0.01,,,0.02,WUHU216HW,2013-01-07 21:14:00,
2013-01-07 16:19:00,34.0,26.5,30.16,SSW,203,6.3,10.1,74,0.01,,,0.02,WUHU216HW,2013-01-07 21:19:00,
2013-01-07 16:24:00,33.8,26.3,30.16,SSW,203,4.0,10.1,74,0.01,,,0.02,WUHU216HW,2013-01-07 21:24:00,
2013-01-07 16:29:00,33.7,26.2,30.15,SW,225,2.9,7.2,74,0.01,,,0.02,WUHU216HW,2013-01-07 21:29:00,
2013-01-07 16:34:00,33.5,26.0,30.15,SSW,203,6.5,6.5,74,0.01,,,0.02,WUHU216HW,2013-01-07 21:34:00,
2013-01-07 16:39:00,33.5,26.3,30.15,South,180,6.7,8.5,75,0.01,,,0.02,WUHU216HW,2013-01-07 21:39:00,
2013-01-07 16:44:00,33.3,26.2,30.15,SSE,158,2.5,9.8,75,0.01,,,0.02,WUHU216HW,2013-01-07 21:44:00,
2013-01-07 16:49:00,33.3,26.2,30.14,SW,225,2.0,9.8,75,0.01,,,0.02,WUHU216HW,2013-01-07 21:49:00,
2013-01-07 16:54:00,33.1,26.0,30.15,WSW,248,7.6,7.8,75,0.01,,,0.02,WUHU216HW,2013-01-07 21:54:00,
2013-01-07 16:59:00,32.9,25.8,30.15,WSW,248,1.6,7.6,75,0.01,,,0.02,WUHU216HW,2013-01-07 21:59:00,
2013-01-07 17:04:00,32.8,25.7,30.15,SW,225,4.3,6.3,75,0.01,,,0.02,WUHU216HW,2013-01-07 22:04:00,
2013-01-07 17:09:00,32.8,26.0,30.15,SSW,203,4.0,6.3,76,0.00,,,0.02,WUHU216HW,2013-01-07 22:09:00,
2013-01-07 17:13:00,32.6,25.8,30.15,WNW,293,3.4,8.7,76,0.00,,,0.02,WUHU216HW,2013-01-07 22:13:00,
2013-01-07 17:18:00,32.4,25.7,30.15,SW,225,4.3,8.7,76,0.00,,,0.02,WUHU216HW,2013-01-07 22:18:00,
2013-01-07 17:23:00,32.2,25.5,30.15,SSW,203,4.3,4.7,76,0.00,,,0.02,WUHU216HW,2013-01-07 22:23:00,
2013-01-07 17:28:00,32.0,25.4,30.15,SSW,203,6.5,6.5,76,0.00,,,0.02,WUHU216HW,2013-01-07 22:28:00,
2013-01-07 17:33:00,32.0,25.4,30.15,WSW,248,1.6,6.5,76,0.00,,,0.02,WUHU216HW,2013-01-07 22:33:00,
2013-01-07 17:38:00,32.0,25.7,30.15,SW,225,3.6,4.3,77,0.00,,,0.02,WUHU216HW,2013-01-07 22:38:00,
2013-01-07 17:43:00,31.9,25.5,30.15,SW,225,5.1,6.5,77,0.00,,,0.02,WUHU216HW,2013-01-07 22:43:00,
2013-01-07 17:48:00,31.9,25.8,30.14,South,180,5.6,6.5,78,0.00,,,0.02,WUHU216HW,2013-01-07 22:48:00,
2013-01-07 17:53:00,31.9,25.8,30.14,SSW,203,4.0,7.8,78,0.00,,,0.02,WUHU216HW,2013-01-07 22:53:00,
2013-01-07 17:58:00,31.7,25.7,30.14,SSW,203,3.4,7.8,78,0.00,,,0.02,WUHU216HW,2013-01-07 22:58:00,
2013-01-07 18:03:00,31.7,25.7,30.14,WSW,248,4.3,5.6,78,0.00,,,0.02,WUHU216HW,2013-01-07 23:03:00,
2013-01-07 18:08:00,31.5,25.5,30.14,South,180,5.6,8.9,78,0.00,,,0.02,WUHU216HW,2013-01-07 23:08:00,
2013-01-07 18:13:00,31.5,25.5,30.14,SSE,158,5.8,8.9,78,0.00,,,0.02,WUHU216HW,2013-01-07 23:13:00,
2013-01-07 18:19:00,31.5,25.5,30.14,SW,225,2.5,6.7,78,0.00,,,0.02,WUHU216HW,2013-01-07 23:19:00,
2013-01-07 18:23:00,31.3,25.3,30.14,SSW,203,5.4,6.3,78,0.00,,,0.02,WUHU216HW,2013-01-07 23:23:00,
2013-01-07 18:28:00,31.3,25.3,30.14,WSW,248,4.7,6.3,78,0.00,,,0.02,WUHU216HW,2013-01-07 23:28:00,
2013-01-07 18:33:00,31.3,25.3,30.14,South,180,4.0,5.6,78,0.00,,,0.02,WUHU216HW,2013-01-07 23:33:00,
2013-01-07 18:38:00,31.3,25.3,30.14,SSW,203,5.4,5.6,78,0.00,,,0.02,WUHU216HW,2013-01-07 23:38:00,
2013-01-07 18:43:00,31.1,25.1,30.14,WSW,248,5.1,5.8,78,0.00,,,0.02,WUHU216HW,2013-01-07 23:43:00,
2013-01-07 18:48:00,31.1,25.1,30.14,SSW,203,7.6,7.6,78,0.00,,,0.02,WUHU216HW,2013-01-07 23:48:00,
2013-01-07 18:53:00,31.1,25.1,30.14,SE,135,4.0,7.6,78,0.00,,,0.02,WUHU216HW,2013-01-07 23:53:00,
2013-01-07 18:58:00,31.0,24.9,30.14,WSW,248,3.4,5.4,78,0.00,,,0.02,WUHU216HW,2013-01-07 23:58:00,
2013-01-07 19:04:00,31.0,24.9,30.14,WSW,248,2.7,6.7,78,0.00,,,0.02,WUHU216HW,2013-01-08 00:04:00,
2013-01-07 19:09:00,30.8,24.8,30.13,SSE,158,4.9,6.7,78,0.00,,,0.02,WUHU216HW,2013-01-08 00:09:00,
2013-01-07 19:14:00,30.8,25.0,30.14,South,180,0.9,6.9,79,0.00,,,0.02,WUHU216HW,2013-01-08 00:14:00,
2013-01-07 19:19:00,30.8,25.0,30.13,SSE,158,4.5,7.2,79,0.00,,,0.02,WUHU216HW,2013-01-08 00:19:00,
2013-01-07 19:24:00,30.8,25.0,30.14,SW,225,4.9,7.2,79,0.00,,,0.02,WUHU216HW,2013-01-08 00:24:00,
2013-01-07 19:29:00,30.6,24.8,30.13,NW,315,6.3,6.3,79,0.00,,,0.02,WUHU216HW,2013-01-08 00:29:00,
2013-01-07 19:34:00,30.6,24.8,30.13,SSW,203,5.8,6.3,79,0.00,,,0.02,WUHU216HW,2013-01-08 00:34:00,
2013-01-07 19:39:00,30.6,24.8,30.13,SW,225,3.1,5.8,79,0.00,,,0.02,WUHU216HW,2013-01-08 00:39:00,
2013-01-07 19:44:00,30.6,24.8,30.14,South,180,6.7,6.7,79,0.00,,,0.02,WUHU216HW,2013-01-08 00:44:00,
2013-01-07 19:48:00,30.6,24.8,30.14,SSW,203,2.5,6.9,79,0.00,,,0.02,WUHU216HW,2013-01-08 00:48:00,
2013-01-07 19:53:00,30.6,24.8,30.14,SW,225,5.4,6.9,79,0.00,,,0.02,WUHU216HW,2013-01-08 00:53:00,
2013-01-07 19:58:00,30.4,24.7,30.14,SSW,203,4.3,5.4,79,0.00,,,0.02,WUHU216HW,2013-01-08 00:58:00,
2013-01-07 20:04:00,30.6,24.8,30.14,SSW,203,4.7,5.8,79,0.00,,,0.02,WUHU216HW,2013-01-08 01:04:00,
2013-01-07 20:09:00,30.6,24.8,30.14,SSW,203,1.1,5.8,79,0.00,,,0.02,WUHU216HW,2013-01-08 01:09:00,
2013-01-07 20:14:00,30.4,24.7,30.14,South,180,3.6,5.4,79,0.00,,,0.02,WUHU216HW,2013-01-08 01:14:00,
2013-01-07 20:18:00,30.4,24.7,30.13,WSW,248,5.1,8.5,79,0.00,,,0.02,WUHU216HW,2013-01-08 01:18:00,
2013-01-07 20:23:00,30.4,24.7,30.12,SSW,203,0.9,8.5,79,0.00,,,0.02,WUHU216HW,2013-01-08 01:23:00,
2013-01-07 20:28:00,30.4,24.7,30.12,SW,225,6.9,6.9,79,0.00,,,0.02,WUHU216HW,2013-01-08 01:28:00,
2013-01-07 20:33:00,30.4,24.7,30.12,South,180,4.0,6.9,79,0.00,,,0.02,WUHU216HW,2013-01-08 01:33:00,
2013-01-07 20:38:00,30.2,24.5,30.12,SSW,203,5.6,6.0,79,0.00,,,0.02,WUHU216HW,2013-01-08 01:38:00,
2013-01-07 20:43:00,30.2,24.5,30.12,South,180,4.5,7.4,79,0.00,,,0.02,WUHU216HW,2013-01-08 01:43:00,
2013-01-07 20:48:00,30.2,24.5,30.12,SSW,203,4.0,7.4,79,0.00,,,0.02,WUHU216HW,2013-01-08 01:48:00,
2013-01-07 20:53:00,30.2,24.5,30.12,South,180,3.4,5.8,79,0.00,,,0.02,WUHU216HW,2013-01-08 01:53:00,
2013-01-07 20:58:00,30.4,24.7,30.11,SSW,203,3.4,5.8,79,0.00,,,0.02,WUHU216HW,2013-01-08 01:58:00,
2013-01-07 21:03:00,30.4,24.7,30.11,South,180,4.7,8.5,79,0.00,,,0.02,WUHU216HW,2013-01-08 02:03:00,
2013-01-07 21:08:00,30.2,24.8,30.11,SSW,203,4.0,8.5,80,0.00,,,0.02,WUHU216HW,2013-01-08 02:08:00,
2013-01-07 21:13:00,30.2,24.5,30.10,SSW,203,4.0,6.0,79,0.00,,,0.02,WUHU216HW,2013-01-08 02:13:00,
2013-01-07 21:18:00,30.4,24.7,30.10,SW,225,2.5,9.8,79,0.00,,,0.02,WUHU216HW,2013-01-08 02:18:00,
2013-01-07 21:23:00,30.2,24.5,30.11,South,180,3.1,9.8,79,0.00,,,0.02,WUHU216HW,2013-01-08 02:23:00,
2013-01-07 21:28:00,30.2,24.5,30.10,SSW,203,2.2,6.9,79,0.00,,,0.02,WUHU216HW,2013-01-08 02:28:00,
2013-01-07 21:33:00,30.2,24.8,30.10,WSW,248,4.3,6.9,80,0.00,,,0.02,WUHU216HW,2013-01-08 02:33:00,
2013-01-07 21:38:00,30.2,24.8,30.09,SW,225,4.0,5.8,80,0.00,,,0.02,WUHU216HW,2013-01-08 02:38:00,
2013-01-07 21:43:00,30.2,24.8,30.10,SW,225,3.8,5.8,80,0.00,,,0.02,WUHU216HW,2013-01-08 02:43:00,
2013-01-07 21:48:00,30.1,24.7,30.09,SSW,203,4.7,4.7,80,0.00,,,0.02,WUHU216HW,2013-01-08 02:48:00,
2013-01-07 21:53:00,30.2,24.8,30.09,SSW,203,2.0,4.7,80,0.00,,,0.02,WUHU216HW,2013-01-08 02:53:00,
2013-01-07 21:58:00,30.2,24.8,30.09,SSE,158,3.8,7.6,80,0.00,,,0.02,WUHU216HW,2013-01-08 02:58:00,
2013-01-07 22:03:00,30.1,24.7,30.09,South,180,4.9,7.6,80,0.00,,,0.02,WUHU216HW,2013-01-08 03:03:00,
2013-01-07 22:09:00,30.1,24.7,30.10,SSW,203,3.8,4.9,80,0.00,,,0.02,WUHU216HW,2013-01-08 03:09:00,
2013-01-07 22:13:00,30.1,24.7,30.10,West,270,2.0,4.5,80,0.00,,,0.02,WUHU216HW,2013-01-08 03:13:00,
2013-01-07 22:18:00,30.1,24.7,30.10,South,180,4.9,4.9,80,0.00,,,0.02,WUHU216HW,2013-01-08 03:18:00,
2013-01-07 22:24:00,30.2,24.8,30.09,South,180,6.7,6.7,80,0.00,,,0.02,WUHU216HW,2013-01-08 03:24:00,
2013-01-07 22:29:00,30.2,24.8,30.10,South,180,2.5,6.7,80,0.00,,,0.02,WUHU216HW,2013-01-08 03:29:00,
2013-01-07 22:34:00,30.4,25.0,30.09,South,180,2.0,5.1,80,0.00,,,0.02,WUHU216HW,2013-01-08 03:34:00,
2013-01-07 22:39:00,30.2,24.8,30.09,SSW,203,2.0,5.1,80,0.00,,,0.02,WUHU216HW,2013-01-08 03:39:00,
2013-01-07 22:44:00,30.2,24.8,30.09,SSW,203,1.3,5.8,80,0.00,,,0.02,WUHU216HW,2013-01-08 03:44:00,
2013-01-07 22:49:00,30.2,24.8,30.09,SSW,203,1.1,5.8,80,0.00,,,0.02,WUHU216HW,2013-01-08 03:49:00,
2013-01-07 22:54:00,30.2,24.8,30.09,SW,225,3.4,4.9,80,0.00,,,0.02,WUHU216HW,2013-01-08 03:54:00,
2013-01-07 22:59:00,30.2,24.8,30.09,SSW,203,1.1,5.4,80,0.00,,,0.02,WUHU216HW,2013-01-08 03:59:00,
2013-01-07 23:04:00,30.2,24.8,30.09,WSW,248,1.1,5.4,80,0.00,,,0.02,WUHU216HW,2013-01-08 04:04:00,
2013-01-07 23:09:00,30.2,24.8,30.09,SW,225,3.1,5.6,80,0.00,,,0.02,WUHU216HW,2013-01-08 04:09:00,
2013-01-07 23:14:00,30.1,24.7,30.09,SSW,203,1.6,5.6,80,0.00,,,0.02,WUHU216HW,2013-01-08 04:14:00,
2013-01-07 23:19:00,30.1,24.7,30.09,SSW,203,3.8,4.3,80,0.00,,,0.02,WUHU216HW,2013-01-08 04:19:00,
2013-01-07 23:24:00,29.9,24.5,30.09,SSW,203,0.9,4.0,80,0.00,,,0.02,WUHU216HW,2013-01-08 04:24:00,
2013-01-07 23:29:00,29.9,24.5,30.09,SW,225,3.1,4.3,80,0.00,,,0.02,WUHU216HW,2013-01-08 04:29:00,
2013-01-07 23:34:00,29.9,24.5,30.09,SSE,158,2.2,4.3,80,0.00,,,0.02,WUHU216HW,2013-01-08 04:34:00,
2013-01-07 23:38:00,29.9,24.5,30.09,South,180,2.5,7.8,80,0.00,,,0.02,WUHU216HW,2013-01-08 04:38:00,
2013-01-07 23:43:00,29.9,24.5,30.10,SSW,203,2.9,7.8,80,0.00,,,0.02,WUHU216HW,2013-01-08 04:43:00,
2013-01-07 23:49:00,30.1,24.7,30.09,South,180,2.7,4.7,80,0.00,,,0.02,WUHU216HW,2013-01-08 04:49:00,
2013-01-07 23:53:00,29.9,24.5,30.10,SW,225,5.8,5.8,80,0.00,,,0.02,WUHU216HW,2013-01-08 04:53:00,
2013-01-07 23:58:00,29.9,24.5,30.10,SSE,158,2.7,5.8,80,0.00,,,0.02,WUHU216HW,2013-01-08 04:58:00,